CSN648 RJTT-ZBAD

Flight info

Callsign CSN648
Flight time 3h 27m
Altitude 38000
Route BEKLA Y18 PIGAP Y182 BIDIK Y16 SAPRA Y685 SEL Y697 AGAVO/K0874S1160 A591 IKEKA W4 HCH W200 DOVIV W55 DUMAP DUMAP6M
Aircraft A333/H-SDE3GHIJ2J3J5M1RVWXY/LB2D1

Departure

Time 2026-05-07 15:04
Airport Tokyo Haneda International Airport (RJTT)

Arrival

Time 2026-05-07 18:31
Airport Beijing Daxing International Airport (ZBAD)
Time Latitude Longitude Altitude Speed Heading
2026-05-07 14:42 35.54652 139.76979 27 ft 0 kts 241°
2026-05-07 14:55 35.54657 139.76991 27 ft 4 kts 240°
2026-05-07 14:55 35.54669 139.77018 27 ft 4 kts 236°
2026-05-07 14:55 35.54688 139.77043 27 ft 4 kts 212°
2026-05-07 14:55 35.54712 139.77054 27 ft 4 kts 179°
2026-05-07 14:56 35.54731 139.77049 27 ft 1 kts 150°
2026-05-07 14:56 35.54734 139.77046 26 ft 2 kts 150°
2026-05-07 14:59 35.54731 139.77053 27 ft 1 kts 123°
2026-05-07 14:59 35.54735 139.77085 27 ft 8 kts 78°
2026-05-07 14:59 35.54759 139.77148 27 ft 9 kts 61°
2026-05-07 14:59 35.54789 139.77216 27 ft 10 kts 61°
2026-05-07 15:00 35.54828 139.77299 27 ft 13 kts 60°
2026-05-07 15:00 35.54878 139.77394 27 ft 14 kts 45°
2026-05-07 15:00 35.54964 139.77384 27 ft 16 kts 330°
2026-05-07 15:00 35.55080 139.77303 27 ft 22 kts 330°
2026-05-07 15:01 35.55226 139.77201 27 ft 25 kts 330°
2026-05-07 15:01 35.55375 139.77093 27 ft 25 kts 329°
2026-05-07 15:01 35.55507 139.77000 26 ft 17 kts 330°
2026-05-07 15:01 35.55563 139.76969 26 ft 1 kts 10°
2026-05-07 15:02 35.55577 139.76977 26 ft 6 kts 26°
2026-05-07 15:02 35.55619 139.77010 26 ft 8 kts 37°
2026-05-07 15:02 35.55669 139.77058 28 ft 9 kts 37°
2026-05-07 15:02 35.55693 139.77116 28 ft 7 kts 103°
2026-05-07 15:03 35.55657 139.77150 28 ft 8 kts 151°
2026-05-07 15:03 35.55544 139.77229 28 ft 38 kts 149°
2026-05-07 15:03 35.55141 139.77516 28 ft 95 kts 150°
2026-05-07 15:03 35.54410 139.78032 29 ft 145 kts 150°
2026-05-07 15:04 35.53471 139.78695 492 ft 156 kts 152°
2026-05-07 15:04 35.52521 139.79362 1151 ft 162 kts 153°
2026-05-07 15:04 35.51525 139.80068 1719 ft 170 kts 154°
2026-05-07 15:04 35.50499 139.80797 2158 ft 173 kts 154°
2026-05-07 15:05 35.49437 139.81552 2573 ft 178 kts 153°
2026-05-07 15:05 35.48367 139.82313 3067 ft 177 kts 156°
2026-05-07 15:05 35.47260 139.83096 3347 ft 192 kts 156°
2026-05-07 15:05 35.46049 139.83971 3518 ft 215 kts 151°
2026-05-07 15:06 35.44895 139.85317 3687 ft 245 kts 127°
2026-05-07 15:06 35.44291 139.87370 3899 ft 270 kts 100°
2026-05-07 15:06 35.44184 139.89695 4249 ft 284 kts 84°
2026-05-07 15:06 35.44889 139.91952 4686 ft 289 kts 50°
2026-05-07 15:07 35.46464 139.93423 5167 ft 286 kts 17°
2026-05-07 15:07 35.48393 139.93938 5694 ft 285 kts
2026-05-07 15:07 35.50371 139.94225 6232 ft 287 kts
2026-05-07 15:07 35.52361 139.94517 6740 ft 292 kts
2026-05-07 15:08 35.54399 139.94848 7249 ft 296 kts
2026-05-07 15:08 35.56445 139.95205 7829 ft 298 kts
2026-05-07 15:08 35.58478 139.95573 8390 ft 301 kts
2026-05-07 15:08 35.60558 139.95937 8934 ft 304 kts
2026-05-07 15:09 35.62679 139.96143 9488 ft 306 kts 358°
2026-05-07 15:09 35.64814 139.96238 10001 ft 307 kts 352°
2026-05-07 15:09 35.66924 139.95784 10289 ft 310 kts 334°
2026-05-07 15:09 35.68764 139.94429 10471 ft 311 kts 310°
2026-05-07 15:10 35.69928 139.92216 10680 ft 312 kts 285°
2026-05-07 15:10 35.70515 139.89617 10911 ft 321 kts 279°
2026-05-07 15:10 35.70991 139.86903 11257 ft 327 kts 278°
2026-05-07 15:10 35.71457 139.84184 11685 ft 331 kts 278°
2026-05-07 15:11 35.71941 139.81397 12145 ft 334 kts 278°
2026-05-07 15:11 35.72436 139.78587 12641 ft 337 kts 278°
2026-05-07 15:11 35.72937 139.75760 13119 ft 339 kts 278°
2026-05-07 15:11 35.73441 139.72926 13572 ft 343 kts 278°
2026-05-07 15:12 35.73956 139.70029 13971 ft 346 kts 278°
2026-05-07 15:12 35.74473 139.67126 14390 ft 348 kts 279°
2026-05-07 15:12 35.74992 139.64206 14790 ft 351 kts 279°
2026-05-07 15:12 35.75514 139.61266 15190 ft 353 kts 279°
2026-05-07 15:13 35.76033 139.58340 15588 ft 356 kts 279°
2026-05-07 15:13 35.76562 139.55351 15988 ft 358 kts 279°
2026-05-07 15:13 35.77095 139.52338 16418 ft 361 kts 279°
2026-05-07 15:13 35.77629 139.49313 16806 ft 363 kts 279°
2026-05-07 15:14 35.78165 139.46269 17195 ft 366 kts 279°
2026-05-07 15:14 35.78706 139.43196 17598 ft 368 kts 279°
2026-05-07 15:14 35.79249 139.40106 17971 ft 370 kts 279°
2026-05-07 15:14 35.79787 139.37037 18323 ft 372 kts 279°
2026-05-07 15:15 35.80334 139.33915 18632 ft 374 kts 279°
2026-05-07 15:15 35.80883 139.30776 18965 ft 375 kts 279°
2026-05-07 15:15 35.81432 139.27630 19291 ft 377 kts 279°
2026-05-07 15:15 35.81984 139.24462 19601 ft 378 kts 279°
2026-05-07 15:16 35.82536 139.21287 19939 ft 379 kts 278°
2026-05-07 15:16 35.83042 139.18102 20307 ft 378 kts 275°
2026-05-07 15:16 35.83218 139.14881 20646 ft 377 kts 268°
2026-05-07 15:16 35.83180 139.11644 20940 ft 378 kts 265°
2026-05-07 15:17 35.83032 139.08403 21258 ft 379 kts 264°
2026-05-07 15:17 35.82840 139.05201 21551 ft 381 kts 263°
2026-05-07 15:17 35.82636 139.01945 21837 ft 382 kts 263°
2026-05-07 15:17 35.82438 138.98680 22165 ft 383 kts 263°
2026-05-07 15:18 35.82250 138.95401 22470 ft 385 kts 264°
2026-05-07 15:18 35.82071 138.92104 22779 ft 387 kts 264°
2026-05-07 15:18 35.81900 138.88791 23042 ft 388 kts 264°
2026-05-07 15:18 35.81733 138.85468 23340 ft 390 kts 264°
2026-05-07 15:19 35.81567 138.82126 23608 ft 391 kts 264°
2026-05-07 15:19 35.81400 138.78777 23831 ft 393 kts 264°
2026-05-07 15:19 35.81233 138.75452 24070 ft 395 kts 264°
2026-05-07 15:19 35.81060 138.72064 24319 ft 397 kts 264°
2026-05-07 15:20 35.80886 138.68682 24634 ft 396 kts 264°
2026-05-07 15:20 35.80709 138.65294 24914 ft 397 kts 264°
2026-05-07 15:20 35.80530 138.61895 25130 ft 398 kts 264°
2026-05-07 15:20 35.80349 138.58484 25348 ft 400 kts 264°
2026-05-07 15:21 35.80168 138.55054 25564 ft 402 kts 263°
2026-05-07 15:21 35.79986 138.51609 25771 ft 403 kts 263°
2026-05-07 15:21 35.79803 138.48161 26038 ft 404 kts 263°
2026-05-07 15:21 35.79618 138.44710 26301 ft 405 kts 263°
2026-05-07 15:22 35.79434 138.41283 26542 ft 406 kts 264°
2026-05-07 15:22 35.79246 138.37806 26787 ft 407 kts 263°
2026-05-07 15:22 35.79151 138.34310 27024 ft 410 kts 269°
2026-05-07 15:22 35.79437 138.30800 27251 ft 415 kts 277°
2026-05-07 15:23 35.80124 138.27333 27479 ft 419 kts 282°
2026-05-07 15:23 35.80966 138.23885 27726 ft 420 kts 283°
2026-05-07 15:23 35.81882 138.20459 28001 ft 421 kts 284°
2026-05-07 15:23 35.82829 138.17043 28189 ft 423 kts 284°
2026-05-07 15:24 35.83791 138.13602 28402 ft 425 kts 284°
2026-05-07 15:24 35.84740 138.10189 28631 ft 427 kts 284°
2026-05-07 15:24 35.85695 138.06728 28847 ft 428 kts 284°
2026-05-07 15:24 35.86648 138.03244 29062 ft 430 kts 284°
2026-05-07 15:25 35.87598 137.99742 29293 ft 431 kts 284°
2026-05-07 15:25 35.88544 137.96244 29548 ft 431 kts 284°
2026-05-07 15:25 35.89492 137.92727 29735 ft 433 kts 284°
2026-05-07 15:25 35.90440 137.89200 29945 ft 434 kts 284°
2026-05-07 15:26 35.91392 137.85658 30099 ft 435 kts 284°
2026-05-07 15:26 35.92332 137.82154 30261 ft 438 kts 284°
2026-05-07 15:26 35.93287 137.78586 30423 ft 439 kts 284°
2026-05-07 15:26 35.94246 137.75000 30601 ft 441 kts 284°
2026-05-07 15:27 35.95209 137.71398 30803 ft 442 kts 284°
2026-05-07 15:27 35.96170 137.67800 30984 ft 443 kts 284°
2026-05-07 15:27 35.97135 137.64181 31156 ft 444 kts 284°
2026-05-07 15:27 35.98103 137.60548 31349 ft 446 kts 284°
2026-05-07 15:28 35.99058 137.56956 31569 ft 447 kts 284°
2026-05-07 15:28 36.00024 137.53318 31904 ft 446 kts 284°
2026-05-07 15:28 36.00799 137.49634 32268 ft 441 kts 277°
2026-05-07 15:28 36.01168 137.45896 32610 ft 437 kts 270°
2026-05-07 15:29 36.01292 137.42161 33004 ft 434 kts 268°
2026-05-07 15:29 36.01335 137.38435 33397 ft 432 kts 267°
2026-05-07 15:29 36.01335 137.34731 33756 ft 430 kts 267°
2026-05-07 15:29 36.01316 137.31043 34108 ft 429 kts 266°
2026-05-07 15:30 36.01292 137.27363 34398 ft 429 kts 266°
2026-05-07 15:30 36.01271 137.23679 34662 ft 428 kts 266°
2026-05-07 15:30 36.01254 137.20011 34984 ft 427 kts 266°
2026-05-07 15:30 36.01242 137.16399 35286 ft 425 kts 266°
2026-05-07 15:31 36.01231 137.12752 35483 ft 425 kts 266°
2026-05-07 15:31 36.01221 137.09101 35788 ft 424 kts 266°
2026-05-07 15:31 36.01210 137.05462 36070 ft 423 kts 266°
2026-05-07 15:31 36.01199 137.01830 36364 ft 422 kts 266°
2026-05-07 15:32 36.01186 136.98212 36669 ft 420 kts 266°
2026-05-07 15:32 36.01173 136.94610 36891 ft 420 kts 266°
2026-05-07 15:32 36.01157 136.91007 37115 ft 419 kts 266°
2026-05-07 15:32 36.01141 136.87458 37357 ft 419 kts 266°
2026-05-07 15:33 36.01123 136.83866 37590 ft 418 kts 266°
2026-05-07 15:33 36.01106 136.80278 37808 ft 417 kts 266°
2026-05-07 15:33 36.01088 136.76690 37911 ft 419 kts 266°
2026-05-07 15:33 36.01068 136.73094 37923 ft 419 kts 266°
2026-05-07 15:34 36.01023 136.65907 37918 ft 418 kts 266°
2026-05-07 15:34 36.00971 136.58723 37917 ft 418 kts 266°
2026-05-07 15:35 36.00918 136.51614 37896 ft 416 kts 266°
2026-05-07 15:35 36.00860 136.44459 37904 ft 416 kts 267°
2026-05-07 15:36 36.00798 136.37308 37899 ft 417 kts 267°
2026-05-07 15:36 36.00732 136.30154 37902 ft 417 kts 266°
2026-05-07 15:37 36.00662 136.23049 37894 ft 416 kts 266°
2026-05-07 15:37 36.00588 136.15898 37892 ft 417 kts 266°
2026-05-07 15:38 36.00509 136.08744 37882 ft 416 kts 267°
2026-05-07 15:38 36.00427 136.01618 37884 ft 415 kts 267°
2026-05-07 15:39 36.00340 135.94533 37878 ft 415 kts 267°
2026-05-07 15:39 36.00249 135.87404 37884 ft 415 kts 267°
2026-05-07 15:40 36.00153 135.80285 37884 ft 415 kts 267°
2026-05-07 15:40 36.00054 135.73166 37881 ft 413 kts 267°
2026-05-07 15:41 35.99952 135.66138 37880 ft 412 kts 267°
2026-05-07 15:41 35.99844 135.59073 37876 ft 412 kts 267°
2026-05-07 15:42 35.99733 135.52008 37876 ft 412 kts 267°
2026-05-07 15:42 35.99618 135.44944 37872 ft 412 kts 267°
2026-05-07 15:43 35.99499 135.37919 37885 ft 411 kts 267°
2026-05-07 15:43 35.99376 135.30885 37873 ft 408 kts 267°
2026-05-07 15:44 35.99250 135.23893 37871 ft 407 kts 267°
2026-05-07 15:44 35.99119 135.16911 37871 ft 407 kts 267°
2026-05-07 15:45 35.98985 135.09921 37871 ft 407 kts 267°
2026-05-07 15:45 35.98847 135.02984 37871 ft 407 kts 266°
2026-05-07 15:46 35.98633 134.92516 37874 ft 405 kts 266°
2026-05-07 15:47 35.98485 134.85581 37875 ft 403 kts 266°
2026-05-07 15:47 35.98334 134.78655 37864 ft 403 kts 266°
2026-05-07 15:48 35.98179 134.71779 37865 ft 403 kts 266°
2026-05-07 15:48 35.98019 134.64859 37864 ft 403 kts 266°
2026-05-07 15:49 35.97856 134.57946 37855 ft 403 kts 266°
2026-05-07 15:49 35.97688 134.51041 37866 ft 402 kts 266°
2026-05-07 15:50 35.97518 134.44191 37867 ft 402 kts 266°
2026-05-07 15:50 35.97343 134.37300 37863 ft 402 kts 266°
2026-05-07 15:51 35.97164 134.30409 37860 ft 402 kts 266°
2026-05-07 15:51 35.96982 134.23524 37862 ft 401 kts 266°
2026-05-07 15:52 35.96795 134.16635 37857 ft 401 kts 266°
2026-05-07 15:52 35.96607 134.09812 37849 ft 400 kts 266°
2026-05-07 15:53 35.96414 134.02967 37849 ft 398 kts 266°
2026-05-07 15:53 35.96217 133.96138 37850 ft 398 kts 266°
2026-05-07 15:54 35.96015 133.89302 37851 ft 398 kts 265°
2026-05-07 15:54 35.95811 133.82513 37855 ft 398 kts 265°
2026-05-07 15:55 35.95601 133.75683 37864 ft 398 kts 265°
2026-05-07 15:55 35.95388 133.68864 37855 ft 396 kts 265°
2026-05-07 15:56 35.95173 133.62090 37856 ft 394 kts 265°
2026-05-07 15:56 35.94955 133.55374 37856 ft 394 kts 265°
2026-05-07 15:57 35.94732 133.48608 37855 ft 395 kts 265°
2026-05-07 15:57 35.94505 133.41842 37873 ft 395 kts 265°
2026-05-07 15:58 35.94275 133.35087 37856 ft 394 kts 265°
2026-05-07 15:58 35.94042 133.28343 37857 ft 393 kts 265°
2026-05-07 15:59 35.93806 133.21646 37873 ft 393 kts 265°
2026-05-07 15:59 35.93566 133.14923 37855 ft 391 kts 265°
2026-05-07 16:00 35.93323 133.08232 37857 ft 392 kts 265°
2026-05-07 16:00 35.93075 133.01510 37876 ft 392 kts 265°
2026-05-07 16:01 35.92826 132.94843 37854 ft 390 kts 265°
2026-05-07 16:01 35.92573 132.88176 37855 ft 389 kts 264°
2026-05-07 16:02 35.92316 132.81507 37856 ft 389 kts 264°
2026-05-07 16:02 35.92055 132.74838 37832 ft 389 kts 265°
2026-05-07 16:03 35.91791 132.68192 37854 ft 391 kts 265°
2026-05-07 16:03 35.91521 132.61488 37853 ft 391 kts 265°
2026-05-07 16:04 35.91249 132.54791 37856 ft 390 kts 264°
2026-05-07 16:04 35.90974 132.48122 37856 ft 389 kts 264°
2026-05-07 16:05 35.90695 132.41453 37856 ft 389 kts 264°
2026-05-07 16:05 35.90414 132.34837 37852 ft 388 kts 264°
2026-05-07 16:06 35.90127 132.28179 37857 ft 389 kts 264°
2026-05-07 16:06 35.89838 132.21522 37856 ft 389 kts 264°
2026-05-07 16:07 35.89548 132.14928 37855 ft 384 kts 264°
2026-05-07 16:07 35.89258 132.08397 37856 ft 380 kts 263°
2026-05-07 16:08 35.88963 132.01889 37854 ft 380 kts 263°
2026-05-07 16:08 35.88665 131.95380 37851 ft 380 kts 264°
2026-05-07 16:09 35.88362 131.88856 37852 ft 381 kts 263°
2026-05-07 16:09 35.88059 131.82376 37850 ft 381 kts 263°
2026-05-07 16:10 35.87750 131.75849 37866 ft 381 kts 263°
2026-05-07 16:10 35.87439 131.69331 37850 ft 380 kts 263°
2026-05-07 16:11 35.87124 131.62828 37854 ft 380 kts 263°
2026-05-07 16:11 35.86807 131.56370 37831 ft 380 kts 263°
2026-05-07 16:12 35.86484 131.49860 37852 ft 381 kts 263°
2026-05-07 16:12 35.86159 131.43345 37848 ft 381 kts 263°
2026-05-07 16:13 35.85829 131.36833 37849 ft 381 kts 263°
2026-05-07 16:13 35.85499 131.30371 37851 ft 380 kts 263°
2026-05-07 16:14 35.85163 131.23868 37848 ft 380 kts 263°
2026-05-07 16:14 35.84823 131.17367 37837 ft 380 kts 263°
2026-05-07 16:15 35.84482 131.10909 37856 ft 380 kts 263°
2026-05-07 16:15 35.84136 131.04409 37850 ft 380 kts 263°
2026-05-07 16:16 35.83786 130.97917 37851 ft 380 kts 263°
2026-05-07 16:16 35.83433 130.91424 37856 ft 380 kts 263°
2026-05-07 16:17 35.83077 130.84938 37853 ft 379 kts 263°
2026-05-07 16:17 35.82721 130.78517 37853 ft 378 kts 263°
2026-05-07 16:18 35.82574 130.72022 37853 ft 382 kts 270°
2026-05-07 16:18 35.83222 130.65490 37856 ft 385 kts 273°
2026-05-07 16:19 35.84049 130.58957 37854 ft 386 kts 274°
2026-05-07 16:19 35.84897 130.52475 37853 ft 386 kts 274°
2026-05-07 16:20 35.85735 130.45941 37869 ft 386 kts 273°
2026-05-07 16:20 35.86559 130.39409 37853 ft 385 kts 273°
2026-05-07 16:21 35.87374 130.32881 37853 ft 385 kts 273°
2026-05-07 16:21 35.88180 130.26401 37853 ft 385 kts 273°
2026-05-07 16:22 35.88988 130.19873 37853 ft 385 kts 273°
2026-05-07 16:22 35.89793 130.13344 37858 ft 385 kts 273°
2026-05-07 16:23 35.90595 130.06812 37859 ft 386 kts 273°
2026-05-07 16:23 35.91395 130.00270 37863 ft 386 kts 273°
2026-05-07 16:24 35.92186 129.93765 37861 ft 386 kts 273°
2026-05-07 16:24 35.92979 129.87217 37858 ft 386 kts 273°
2026-05-07 16:25 35.93769 129.80663 37866 ft 386 kts 273°
2026-05-07 16:25 35.94423 129.75211 37863 ft 386 kts 273°
2026-05-07 16:26 35.95334 129.67586 37863 ft 387 kts 273°
2026-05-07 16:26 35.96115 129.61014 37864 ft 387 kts 273°
2026-05-07 16:27 35.96892 129.54445 37862 ft 386 kts 273°
2026-05-07 16:27 35.98180 129.48017 37876 ft 393 kts 284°
2026-05-07 16:28 36.00835 129.42003 37862 ft 405 kts 295°
2026-05-07 16:28 36.04070 129.36282 37882 ft 408 kts 297°
2026-05-07 16:29 36.07404 129.30610 37877 ft 408 kts 297°
2026-05-07 16:29 36.10161 129.25894 37883 ft 407 kts 297°
2026-05-07 16:30 36.13984 129.19278 37890 ft 407 kts 296°
2026-05-07 16:30 36.16730 129.14493 37884 ft 407 kts 296°
2026-05-07 16:31 36.19977 129.08823 37899 ft 406 kts 296°
2026-05-07 16:31 36.23238 129.03127 37889 ft 405 kts 296°
2026-05-07 16:32 36.27022 128.96509 37897 ft 405 kts 296°
2026-05-07 16:32 36.30275 128.90805 37893 ft 405 kts 296°
2026-05-07 16:33 36.32973 128.86072 37909 ft 403 kts 296°
2026-05-07 16:33 36.36188 128.80422 37901 ft 399 kts 296°
2026-05-07 16:34 36.39377 128.74801 37901 ft 398 kts 296°
2026-05-07 16:34 36.42567 128.69169 37897 ft 399 kts 296°
2026-05-07 16:35 36.45736 128.63567 37919 ft 398 kts 296°
2026-05-07 16:35 36.48900 128.57976 37903 ft 394 kts 296°
2026-05-07 16:36 36.52042 128.52406 37901 ft 393 kts 295°
2026-05-07 16:36 36.55173 128.46841 37898 ft 392 kts 295°
2026-05-07 16:37 36.58272 128.41331 37903 ft 391 kts 295°
2026-05-07 16:37 36.61380 128.35792 37903 ft 391 kts 295°
2026-05-07 16:38 36.64499 128.30250 37900 ft 391 kts 295°
2026-05-07 16:38 36.67649 128.24720 37909 ft 391 kts 295°
2026-05-07 16:39 36.70781 128.19230 37908 ft 391 kts 295°
2026-05-07 16:39 36.73929 128.13700 37911 ft 391 kts 295°
2026-05-07 16:40 36.77075 128.08155 37920 ft 392 kts 295°
2026-05-07 16:40 36.80220 128.02602 37914 ft 392 kts 295°
2026-05-07 16:41 36.83338 127.97088 37917 ft 391 kts 295°
2026-05-07 16:41 36.86474 127.91535 37919 ft 391 kts 295°
2026-05-07 16:42 36.89603 127.85982 37925 ft 391 kts 295°
2026-05-07 16:42 36.92732 127.80411 37920 ft 391 kts 295°
2026-05-07 16:43 36.95864 127.74839 37925 ft 392 kts 295°
2026-05-07 16:43 36.98976 127.69298 37929 ft 392 kts 295°
2026-05-07 16:44 37.02103 127.63728 37936 ft 391 kts 295°
2026-05-07 16:44 37.05218 127.58161 37929 ft 390 kts 294°
2026-05-07 16:45 37.08320 127.52601 37923 ft 389 kts 294°
2026-05-07 16:45 37.11399 127.47074 38010 ft 390 kts 294°
2026-05-07 16:46 37.14500 127.41502 37932 ft 389 kts 294°
2026-05-07 16:46 37.17592 127.35936 37935 ft 389 kts 294°
2026-05-07 16:47 37.20678 127.30371 37941 ft 389 kts 294°
2026-05-07 16:47 37.23742 127.24836 37956 ft 389 kts 294°
2026-05-07 16:48 37.26825 127.19257 37957 ft 389 kts 294°
2026-05-07 16:48 37.29905 127.13676 37960 ft 389 kts 294°
2026-05-07 16:49 37.32984 127.08086 37962 ft 389 kts 294°
2026-05-07 16:49 37.36060 127.02497 37960 ft 389 kts 294°
2026-05-07 16:50 37.38981 126.96875 37977 ft 381 kts 288°
2026-05-07 16:50 37.40842 126.90792 37959 ft 367 kts 276°
2026-05-07 16:51 37.41365 126.84510 37966 ft 360 kts 267°
2026-05-07 16:51 37.41376 126.78223 37964 ft 359 kts 265°
2026-05-07 16:52 37.41306 126.71979 37968 ft 360 kts 266°
2026-05-07 16:52 37.41248 126.65695 37963 ft 359 kts 266°
2026-05-07 16:53 37.41208 126.59411 37966 ft 359 kts 266°
2026-05-07 16:53 37.41171 126.53127 37965 ft 359 kts 266°
2026-05-07 16:54 37.41133 126.46890 37976 ft 359 kts 266°
2026-05-07 16:54 37.41092 126.40614 37977 ft 359 kts 266°
2026-05-07 16:55 37.41047 126.34338 37974 ft 359 kts 266°
2026-05-07 16:55 37.40998 126.28061 37962 ft 359 kts 266°
2026-05-07 16:56 37.40946 126.21829 37975 ft 359 kts 266°
2026-05-07 16:56 37.40863 126.12444 37973 ft 357 kts 266°
2026-05-07 16:57 37.40803 126.06205 37977 ft 357 kts 266°
2026-05-07 16:57 37.40739 125.99961 37983 ft 357 kts 266°
2026-05-07 16:58 37.40673 125.93753 37987 ft 357 kts 266°
2026-05-07 16:58 37.40603 125.87504 37985 ft 357 kts 266°
2026-05-07 16:59 37.40530 125.81255 37986 ft 357 kts 266°
2026-05-07 16:59 37.40454 125.75017 38057 ft 357 kts 266°
2026-05-07 17:00 37.40375 125.68816 37992 ft 356 kts 266°
2026-05-07 17:00 37.40292 125.62593 37996 ft 356 kts 266°
2026-05-07 17:01 37.40206 125.56381 37993 ft 356 kts 266°
2026-05-07 17:01 37.40116 125.50157 38008 ft 356 kts 266°
2026-05-07 17:02 37.40024 125.43976 38001 ft 356 kts 267°
2026-05-07 17:02 37.39928 125.37739 38001 ft 357 kts 267°
2026-05-07 17:03 37.39828 125.31495 38007 ft 357 kts 267°
2026-05-07 17:03 37.39725 125.25252 38007 ft 357 kts 266°
2026-05-07 17:04 37.39620 125.19000 38011 ft 359 kts 267°
2026-05-07 17:04 37.39511 125.12744 38017 ft 361 kts 267°
2026-05-07 17:05 37.39399 125.06429 38015 ft 361 kts 267°
2026-05-07 17:05 37.39284 125.00125 38003 ft 360 kts 267°
2026-05-07 17:06 37.39166 124.93856 38020 ft 358 kts 267°
2026-05-07 17:06 37.39046 124.87646 38021 ft 358 kts 267°
2026-05-07 17:07 37.38920 124.81386 38023 ft 358 kts 267°
2026-05-07 17:07 37.38791 124.75123 38023 ft 358 kts 267°
2026-05-07 17:08 37.38658 124.68860 38034 ft 359 kts 267°
2026-05-07 17:08 37.38522 124.62560 38032 ft 361 kts 267°
2026-05-07 17:09 37.38383 124.56304 38032 ft 361 kts 267°
2026-05-07 17:09 37.38240 124.49999 38036 ft 361 kts 267°
2026-05-07 17:10 37.37707 124.43740 38035 ft 361 kts 259°
2026-05-07 17:10 37.35968 124.37797 38039 ft 366 kts 246°
2026-05-07 17:11 37.33367 124.32267 38043 ft 369 kts 244°
2026-05-07 17:11 37.30617 124.26861 38047 ft 370 kts 243°
2026-05-07 17:12 37.27839 124.21425 38073 ft 370 kts 243°
2026-05-07 17:12 37.25082 124.15981 38052 ft 369 kts 244°
2026-05-07 17:13 37.22312 124.10583 38057 ft 368 kts 243°
2026-05-07 17:13 37.19493 124.05281 38056 ft 368 kts 243°
2026-05-07 17:14 37.16642 123.99955 38061 ft 368 kts 243°
2026-05-07 17:14 37.13849 123.94595 38058 ft 367 kts 244°
2026-05-07 17:15 37.11087 123.89218 38067 ft 367 kts 244°
2026-05-07 17:15 37.08340 123.83878 38067 ft 367 kts 244°
2026-05-07 17:16 37.05566 123.78506 38070 ft 367 kts 244°
2026-05-07 17:16 37.02788 123.73141 38070 ft 367 kts 244°
2026-05-07 17:17 37.00009 123.67787 38091 ft 366 kts 244°
2026-05-07 17:17 36.97258 123.62495 38078 ft 365 kts 244°
2026-05-07 17:18 36.94487 123.57167 38080 ft 366 kts 244°
2026-05-07 17:18 36.91709 123.51836 38078 ft 366 kts 244°
2026-05-07 17:19 36.88930 123.46512 38043 ft 366 kts 244°
2026-05-07 17:19 36.86421 123.41060 38083 ft 358 kts 251°
2026-05-07 17:20 36.85021 123.35228 38085 ft 351 kts 263°
2026-05-07 17:20 36.84922 123.29161 38086 ft 351 kts 275°
2026-05-07 17:21 36.86021 123.23194 38089 ft 354 kts 282°
2026-05-07 17:21 36.87455 123.17299 38089 ft 355 kts 283°
2026-05-07 17:22 36.88913 123.11444 38088 ft 355 kts 283°
2026-05-07 17:22 36.90354 123.05541 38090 ft 355 kts 283°
2026-05-07 17:23 36.91777 122.99628 38095 ft 355 kts 283°
2026-05-07 17:23 36.93191 122.93712 38102 ft 355 kts 283°
2026-05-07 17:24 36.94601 122.87795 38112 ft 355 kts 283°
2026-05-07 17:24 36.96003 122.81909 38101 ft 355 kts 283°
2026-05-07 17:25 36.97409 122.75989 38103 ft 355 kts 283°
2026-05-07 17:25 36.98814 122.70062 38101 ft 355 kts 283°
2026-05-07 17:26 37.00214 122.64139 38106 ft 355 kts 283°
2026-05-07 17:26 37.01612 122.58210 38109 ft 355 kts 283°
2026-05-07 17:27 37.02997 122.52322 38101 ft 355 kts 283°
2026-05-07 17:27 37.04389 122.46393 38112 ft 355 kts 283°
2026-05-07 17:28 37.05778 122.40461 38105 ft 355 kts 283°
2026-05-07 17:28 37.07708 122.34730 38121 ft 362 kts 294°
2026-05-07 17:29 37.10834 122.29743 38113 ft 375 kts 308°
2026-05-07 17:29 37.14851 122.25487 38116 ft 376 kts 308°
2026-05-07 17:30 37.18212 122.20630 38116 ft 363 kts 296°
2026-05-07 17:30 37.20380 122.15018 38117 ft 356 kts 287°
2026-05-07 17:31 37.21967 122.09187 38113 ft 356 kts 284°
2026-05-07 17:31 37.23461 122.03265 38115 ft 356 kts 285°
2026-05-07 17:32 37.24961 121.97340 38115 ft 357 kts 285°
2026-05-07 17:32 37.26481 121.91410 38118 ft 357 kts 285°
2026-05-07 17:33 37.27998 121.85518 38118 ft 357 kts 285°
2026-05-07 17:33 37.29520 121.79599 38149 ft 355 kts 285°
2026-05-07 17:34 37.31034 121.73688 38124 ft 357 kts 285°
2026-05-07 17:34 37.32552 121.67744 38127 ft 358 kts 285°
2026-05-07 17:35 37.34061 121.61823 38125 ft 358 kts 285°
2026-05-07 17:35 37.35576 121.55865 38126 ft 358 kts 285°
2026-05-07 17:36 37.37089 121.49902 38127 ft 358 kts 285°
2026-05-07 17:36 37.38601 121.43927 38126 ft 359 kts 285°
2026-05-07 17:37 37.40112 121.37940 38130 ft 359 kts 285°
2026-05-07 17:37 37.41612 121.31988 38129 ft 359 kts 285°
2026-05-07 17:38 37.43117 121.25999 38135 ft 359 kts 285°
2026-05-07 17:38 37.44620 121.20004 38135 ft 359 kts 285°
2026-05-07 17:39 37.46286 121.14076 38136 ft 360 kts 289°
2026-05-07 17:39 37.48154 121.08264 38134 ft 360 kts 289°
2026-05-07 17:40 37.50057 121.02425 38140 ft 360 kts 289°
2026-05-07 17:40 37.51937 120.96570 38141 ft 361 kts 289°
2026-05-07 17:41 37.53800 120.90701 38140 ft 361 kts 289°
2026-05-07 17:41 37.55643 120.84872 38140 ft 361 kts 289°
2026-05-07 17:42 37.57496 120.78997 38140 ft 361 kts 289°
2026-05-07 17:42 37.59365 120.73136 38144 ft 361 kts 290°
2026-05-07 17:43 37.61284 120.67296 38140 ft 361 kts 290°
2026-05-07 17:43 37.63212 120.61453 38140 ft 361 kts 290°
2026-05-07 17:44 37.65143 120.55658 38139 ft 361 kts 292°
2026-05-07 17:44 37.67525 120.50051 38138 ft 363 kts 295°
2026-05-07 17:45 37.70032 120.44515 38138 ft 363 kts 296°
2026-05-07 17:45 37.72564 120.38993 38142 ft 363 kts 296°
2026-05-07 17:46 37.75079 120.33486 38139 ft 365 kts 296°
2026-05-07 17:46 37.77609 120.27924 38133 ft 365 kts 296°
2026-05-07 17:47 37.80135 120.22357 38134 ft 365 kts 296°
2026-05-07 17:47 37.82658 120.16783 38134 ft 365 kts 296°
2026-05-07 17:48 37.85162 120.11243 38151 ft 365 kts 296°
2026-05-07 17:48 37.87685 120.05650 38130 ft 366 kts 296°
2026-05-07 17:49 37.90208 120.00050 38129 ft 367 kts 296°
2026-05-07 17:49 37.92730 119.94442 38131 ft 367 kts 296°
2026-05-07 17:50 37.95234 119.88863 38129 ft 366 kts 296°
2026-05-07 17:50 37.97748 119.83252 38131 ft 366 kts 296°
2026-05-07 17:51 38.00265 119.77625 38132 ft 367 kts 297°
2026-05-07 17:51 38.02788 119.71973 38130 ft 368 kts 297°
2026-05-07 17:52 38.05310 119.66316 38127 ft 369 kts 297°
2026-05-07 17:52 38.07813 119.60690 38124 ft 369 kts 297°
2026-05-07 17:53 38.09079 119.57840 37916 ft 373 kts 297°
2026-05-07 17:53 38.10354 119.54955 37655 ft 374 kts 296°
2026-05-07 17:53 38.11473 119.51989 37395 ft 373 kts 293°
2026-05-07 17:53 38.12512 119.48972 37139 ft 372 kts 292°
2026-05-07 17:54 38.13521 119.45947 36889 ft 372 kts 292°
2026-05-07 17:54 38.14512 119.42915 36631 ft 372 kts 291°
2026-05-07 17:54 38.15498 119.39876 36375 ft 372 kts 291°
2026-05-07 17:54 38.16480 119.36835 36149 ft 372 kts 291°
2026-05-07 17:55 38.17445 119.33850 35926 ft 367 kts 291°
2026-05-07 17:55 38.18405 119.30883 35618 ft 361 kts 291°
2026-05-07 17:55 38.19357 119.27942 35238 ft 358 kts 292°
2026-05-07 17:55 38.20301 119.25026 34820 ft 356 kts 292°
2026-05-07 17:56 38.21240 119.22125 34405 ft 353 kts 292°
2026-05-07 17:56 38.22172 119.19241 33966 ft 351 kts 292°
2026-05-07 17:56 38.23096 119.16383 33519 ft 348 kts 292°
2026-05-07 17:56 38.24012 119.13545 33094 ft 346 kts 292°
2026-05-07 17:57 38.24914 119.10746 32683 ft 347 kts 292°
2026-05-07 17:57 38.25535 119.08819 32398 ft 349 kts 292°
2026-05-07 17:57 38.26758 119.05018 31792 ft 352 kts 292°
2026-05-07 17:57 38.27688 119.02127 31384 ft 352 kts 292°
2026-05-07 17:58 38.28612 118.99249 31092 ft 351 kts 293°
2026-05-07 17:58 38.29532 118.96379 30768 ft 350 kts 293°
2026-05-07 17:58 38.30449 118.93518 30425 ft 348 kts 293°
2026-05-07 17:58 38.31363 118.90661 30085 ft 348 kts 293°
2026-05-07 17:59 38.32271 118.87823 29739 ft 346 kts 294°
2026-05-07 17:59 38.33165 118.85025 29442 ft 345 kts 294°
2026-05-07 17:59 38.34066 118.82202 29100 ft 344 kts 294°
2026-05-07 17:59 38.34964 118.79388 28784 ft 342 kts 294°
2026-05-07 18:00 38.35857 118.76583 28454 ft 341 kts 294°
2026-05-07 18:00 38.36747 118.73793 28138 ft 339 kts 294°
2026-05-07 18:00 38.37635 118.71015 27828 ft 338 kts 294°
2026-05-07 18:00 38.38521 118.68242 27511 ft 337 kts 294°
2026-05-07 18:01 38.39403 118.65480 27189 ft 336 kts 295°
2026-05-07 18:01 38.40270 118.62765 26869 ft 335 kts 295°
2026-05-07 18:01 38.41147 118.60013 26551 ft 334 kts 295°
2026-05-07 18:01 38.42020 118.57271 26224 ft 333 kts 295°
2026-05-07 18:02 38.43753 118.51818 25588 ft 331 kts 295°
2026-05-07 18:02 38.44625 118.49076 25287 ft 341 kts 295°
2026-05-07 18:02 38.45535 118.46223 25051 ft 351 kts 295°
2026-05-07 18:03 38.46455 118.43326 24809 ft 352 kts 295°
2026-05-07 18:03 38.47369 118.40432 24582 ft 351 kts 295°
2026-05-07 18:03 38.48260 118.37602 24386 ft 343 kts 295°
2026-05-07 18:03 38.49135 118.34816 24127 ft 334 kts 296°
2026-05-07 18:04 38.49993 118.32089 23800 ft 329 kts 296°
2026-05-07 18:04 38.50839 118.29400 23422 ft 324 kts 296°
2026-05-07 18:04 38.51673 118.26749 23075 ft 320 kts 296°
2026-05-07 18:04 38.52505 118.24106 22754 ft 321 kts 296°
2026-05-07 18:05 38.53339 118.21455 22431 ft 322 kts 296°
2026-05-07 18:05 38.54172 118.18801 22091 ft 321 kts 296°
2026-05-07 18:05 38.54991 118.16191 21775 ft 321 kts 296°
2026-05-07 18:05 38.55820 118.13541 21447 ft 321 kts 295°
2026-05-07 18:06 38.56648 118.10896 21120 ft 321 kts 295°
2026-05-07 18:06 38.57473 118.08257 20797 ft 320 kts 295°
2026-05-07 18:06 38.58298 118.05613 20455 ft 320 kts 295°
2026-05-07 18:06 38.59140 118.02972 20139 ft 320 kts 296°
2026-05-07 18:07 38.60032 118.00368 19825 ft 320 kts 297°
2026-05-07 18:07 38.60940 117.97773 19496 ft 320 kts 297°
2026-05-07 18:07 38.61838 117.95212 19172 ft 320 kts 297°
2026-05-07 18:07 38.62747 117.92618 18842 ft 320 kts 297°
2026-05-07 18:08 38.63655 117.90025 18519 ft 320 kts 297°
2026-05-07 18:08 38.64564 117.87425 18151 ft 320 kts 296°
2026-05-07 18:08 38.65470 117.84831 17819 ft 319 kts 296°
2026-05-07 18:08 38.66372 117.82243 17484 ft 318 kts 297°
2026-05-07 18:09 38.67273 117.79657 17144 ft 317 kts 297°
2026-05-07 18:09 38.68169 117.77082 16833 ft 316 kts 297°
2026-05-07 18:09 38.69062 117.74516 16506 ft 315 kts 297°
2026-05-07 18:09 38.69941 117.71987 16182 ft 314 kts 297°
2026-05-07 18:10 38.70828 117.69432 15853 ft 314 kts 297°
2026-05-07 18:10 38.71711 117.66887 15522 ft 313 kts 297°
2026-05-07 18:10 38.72593 117.64343 15208 ft 312 kts 297°
2026-05-07 18:10 38.73470 117.61810 14882 ft 311 kts 297°
2026-05-07 18:11 38.74345 117.59285 14554 ft 310 kts 297°
2026-05-07 18:11 38.74923 117.57613 14338 ft 310 kts 297°
2026-05-07 18:11 38.76077 117.54272 13899 ft 309 kts 297°
2026-05-07 18:11 38.76943 117.51765 13556 ft 308 kts 297°
2026-05-07 18:12 38.77807 117.49259 13224 ft 307 kts 297°
2026-05-07 18:12 38.78669 117.46759 12892 ft 306 kts 297°
2026-05-07 18:12 38.79526 117.44270 12592 ft 305 kts 297°
2026-05-07 18:12 38.80381 117.41785 12281 ft 304 kts 297°
2026-05-07 18:13 38.81231 117.39311 11948 ft 303 kts 297°
2026-05-07 18:13 38.82078 117.36845 11634 ft 302 kts 297°
2026-05-07 18:13 38.82913 117.34408 11393 ft 294 kts 297°
2026-05-07 18:13 38.83710 117.32079 11218 ft 284 kts 297°
2026-05-07 18:14 38.84487 117.29804 11075 ft 273 kts 297°
2026-05-07 18:14 38.85235 117.27616 10963 ft 263 kts 297°
2026-05-07 18:14 38.85960 117.25498 10844 ft 255 kts 297°
2026-05-07 18:14 38.86663 117.23442 10686 ft 250 kts 297°
2026-05-07 18:15 38.87363 117.21399 10467 ft 250 kts 297°
2026-05-07 18:15 38.88061 117.19359 10237 ft 250 kts 297°
2026-05-07 18:15 38.88750 117.17342 10024 ft 250 kts 297°
2026-05-07 18:15 38.89446 117.15301 9803 ft 249 kts 297°
2026-05-07 18:16 38.90157 117.13220 9650 ft 262 kts 296°
2026-05-07 18:16 38.90901 117.11043 9478 ft 269 kts 296°
2026-05-07 18:16 38.91648 117.08844 9283 ft 269 kts 296°
2026-05-07 18:16 38.92393 117.06647 9110 ft 268 kts 296°
2026-05-07 18:17 38.93135 117.04457 8922 ft 268 kts 296°
2026-05-07 18:17 38.93878 117.02267 8750 ft 267 kts 296°
2026-05-07 18:17 38.94609 117.00110 8565 ft 267 kts 296°
2026-05-07 18:17 38.95349 116.97927 8395 ft 266 kts 295°
2026-05-07 18:18 38.96087 116.95746 8207 ft 266 kts 295°
2026-05-07 18:18 38.96824 116.93566 8041 ft 266 kts 295°
2026-05-07 18:18 38.97560 116.91389 7855 ft 265 kts 295°
2026-05-07 18:18 38.98294 116.89216 7684 ft 265 kts 295°
2026-05-07 18:19 38.99027 116.87045 7502 ft 265 kts 295°
2026-05-07 18:19 38.99758 116.84876 7329 ft 264 kts 295°
2026-05-07 18:19 39.00488 116.82712 7145 ft 264 kts 295°
2026-05-07 18:19 39.01208 116.80573 6978 ft 264 kts 295°
2026-05-07 18:20 39.01935 116.78412 6794 ft 263 kts 295°
2026-05-07 18:20 39.02662 116.76251 6629 ft 263 kts 295°
2026-05-07 18:20 39.03398 116.74102 6440 ft 262 kts 297°
2026-05-07 18:20 39.04377 116.72133 6274 ft 261 kts 308°
2026-05-07 18:21 39.05518 116.70328 6096 ft 261 kts 310°
2026-05-07 18:21 39.06693 116.68543 5926 ft 261 kts 311°
2026-05-07 18:21 39.07839 116.66806 5766 ft 254 kts 311°
2026-05-07 18:21 39.08959 116.65101 5624 ft 245 kts 311°
2026-05-07 18:22 39.10041 116.63450 5429 ft 238 kts 311°
2026-05-07 18:22 39.10741 116.62379 5345 ft 233 kts 310°
2026-05-07 18:22 39.11835 116.60038 5117 ft 229 kts 287°
2026-05-07 18:22 39.11957 116.57996 4959 ft 232 kts 269°
2026-05-07 18:23 39.11790 116.55916 4802 ft 233 kts 265°
2026-05-07 18:23 39.11580 116.53870 4641 ft 234 kts 265°
2026-05-07 18:23 39.11504 116.51790 4486 ft 232 kts 279°
2026-05-07 18:23 39.12105 116.49928 4328 ft 225 kts 315°
2026-05-07 18:24 39.13390 116.48827 4186 ft 224 kts 336°
2026-05-07 18:24 39.14880 116.48236 4019 ft 225 kts 348°
2026-05-07 18:24 39.16433 116.47933 3867 ft 226 kts 352°
2026-05-07 18:24 39.17989 116.47696 3716 ft 225 kts 352°
2026-05-07 18:25 39.19539 116.47462 3562 ft 224 kts 352°
2026-05-07 18:25 39.21082 116.47226 3416 ft 223 kts 352°
2026-05-07 18:25 39.22602 116.46989 3262 ft 223 kts 352°
2026-05-07 18:25 39.24138 116.46748 3114 ft 223 kts 352°
2026-05-07 18:26 39.25673 116.46505 2973 ft 222 kts 352°
2026-05-07 18:26 39.27194 116.46263 2931 ft 215 kts 352°
2026-05-07 18:26 39.28642 116.46034 2940 ft 202 kts 352°
2026-05-07 18:26 39.29982 116.45824 2938 ft 186 kts 352°
2026-05-07 18:27 39.31221 116.45629 2929 ft 174 kts 352°
2026-05-07 18:27 39.32417 116.45442 2925 ft 172 kts 352°
2026-05-07 18:27 39.33573 116.45263 2780 ft 165 kts 352°
2026-05-07 18:27 39.34325 116.45146 2626 ft 164 kts 352°
2026-05-07 18:28 39.35816 116.44912 2325 ft 162 kts 352°
2026-05-07 18:28 39.36916 116.44739 2098 ft 157 kts 351°
2026-05-07 18:28 39.37972 116.44573 1900 ft 148 kts 351°
2026-05-07 18:28 39.38961 116.44418 1718 ft 140 kts 350°
2026-05-07 18:29 39.39926 116.44265 1535 ft 140 kts 351°
2026-05-07 18:29 39.40894 116.44114 1352 ft 140 kts 349°
2026-05-07 18:29 39.41857 116.43962 1170 ft 139 kts 349°
2026-05-07 18:29 39.42803 116.43813 977 ft 139 kts 349°
2026-05-07 18:30 39.43761 116.43662 790 ft 138 kts 350°
2026-05-07 18:30 39.44718 116.43511 603 ft 139 kts 351°
2026-05-07 18:30 39.45675 116.43360 405 ft 138 kts 352°
2026-05-07 18:30 39.46624 116.43208 232 ft 137 kts 352°
2026-05-07 18:31 39.47566 116.43073 101 ft 131 kts 353°
2026-05-07 18:31 39.48311 116.42956 104 ft 80 kts 352°
2026-05-07 18:31 39.48725 116.42891 100 ft 51 kts 353°
2026-05-07 18:31 39.49044 116.42828 101 ft 41 kts 343°
2026-05-07 18:32 39.49249 116.42686 98 ft 32 kts 326°
2026-05-07 18:32 39.49431 116.42525 95 ft 31 kts 326°
2026-05-07 18:32 39.49541 116.42438 94 ft 17 kts 334°
2026-05-07 18:32 39.49656 116.42408 92 ft 17 kts 353°
2026-05-07 18:33 39.49781 116.42388 92 ft 19 kts 353°
2026-05-07 18:33 39.49914 116.42367 91 ft 20 kts 353°
2026-05-07 18:33 39.50052 116.42345 91 ft 21 kts 353°
2026-05-07 18:33 39.50198 116.42322 93 ft 19 kts 353°
2026-05-07 18:34 39.50286 116.42269 92 ft 13 kts 295°
2026-05-07 18:34 39.50290 116.42150 91 ft 14 kts 262°
2026-05-07 18:34 39.50276 116.42015 91 ft 16 kts 262°
2026-05-07 18:34 39.50265 116.41867 91 ft 15 kts 277°
2026-05-07 18:35 39.50312 116.41803 91 ft 8 kts 340°
2026-05-07 18:35 39.50405 116.41782 92 ft 19 kts 353°
2026-05-07 18:35 39.50520 116.41702 90 ft 20 kts 312°
2026-05-07 18:35 39.50616 116.41568 92 ft 21 kts 313°
2026-05-07 18:36 39.50691 116.41448 93 ft 11 kts 299°
2026-05-07 18:36 39.50711 116.41397 92 ft 3 kts 343°
2026-05-07 18:36 39.50758 116.41406 91 ft 8 kts 15°
2026-05-07 18:36 39.50790 116.41425 90 ft 4 kts 27°
2026-05-07 18:37 39.50800 116.41432 91 ft 0 kts 25°